Location: Newark
(60.5925°N, 45.5911°E)
Time: 03:04:25
(UTC+00:00)

Envisat - Pass Details

Date: 18 September 2019
Orbit: 764 x 766 km, 98.1° (Epoch: 15 October)

Event Time Altitude Azimuth Distance (km) Brightness Sun altitude
Rises 15:40:44 0° 190° (S) 3,227 6.2 -4.4°
Reaches altitude 10° 15:43:13 10° 199° (SSW) 2,305 5.6 -4.7°
Maximum altitude 15:47:52 35° 266° (W) 1,219 4.9 -5.2°
Drops below altitude 10° 15:52:33 10° 332° (NNW) 2,319 6.2 -5.8°
Sets 15:55:04 0° 341° (NNW) 3,250 6.8 -6.1°
